La Ceiba, Honduras

1:04 AM CST on August 21, 2017 (GMT -0600)
Goloson International

Weather History for MHLC - January, 2013

Change the Weather History Date:

Monday, January 21, 2013

  Actual Average Record
Temperature  
Mean Temperature 68 °F -  
Max Temperature 71 °F 79 °F 87 °F (2017)
Min Temperature 66 °F 66 °F 60 °F (2009)
Cooling Degree Days 4    
Growing Degree Days 18 (Base 50)    
Moisture  
Dew Point 67 °F    
Average Humidity 94    
Maximum Humidity 100    
Minimum Humidity 85    
Precipitation  
Precipitation 0.39 in 0.42 in - ()
Sea Level Pressure  
Sea Level Pressure 30.05 in    
Wind  
Wind Speed 4 mph ()    
Max Wind Speed 9 mph    
Max Gust Speed -    
Visibility 2.7 miles    
Events Rain    
Averages and records for this station are not official NWS values.
T = Trace of Precipitation, MM = Missing Value Source: Averaged Metar Reports

Daily Weather History Graph

Daily Weather History Graph

Search for Another Location

Airport or City:

Trip Planner

Search our weather history database for the weather conditions in past years. The results will help you decide how hot, cold, wet, or windy it might be!

Date:

Astronomy

Jan. 21, 2013 Rise Set
Actual Time 6:18 AM CST 5:39 PM CST
Civil Twilight 5:55 AM CST 6:02 PM CST
Nautical Twilight 5:29 AM CST 6:28 PM CST
Astronomical Twilight 5:03 AM CST 6:54 PM CST
Moon 1:22 PM CST 1:45 AM CST
Length of Visible Light 12h 06m
Length of Day
11h 21m
Waxing Gibbous, 75% of the Moon is Illuminated
Jan 21
Waxing Gibbous
Jan 26
Full
Feb 3
Last Quarter
Feb 10
New
Feb 17
First Quarter

Hourly Weather History & Observations

Time (CST) Temp. Dew Point Humidity Pressure Visibility Wind Dir Wind Speed Gust Speed Precip Events Conditions
12:00 AM 68 °F 67 °F 94% 30.07 in 3 mi Calm Calm - - Rain Drizzle
12:00 AM 68.0 °F 66.2 °F 94% 30.06 in 3.1 mi Calm Calm - N/A   Drizzle
6:00 AM 68.0 °F 66.2 °F 94% 30.04 in 1.9 mi SSW 4.6 mph - N/A Rain Rain
7:00 AM 68.0 °F 66.2 °F 94% 30.04 in 1.9 mi South 3.5 mph - N/A   Drizzle
8:00 AM 68.0 °F 66.2 °F 94% 30.04 in 1.2 mi SW 5.8 mph - N/A   Drizzle
9:00 AM 68.0 °F 68.0 °F 100% 30.06 in 0.6 mi SSW 4.6 mph - N/A   Heavy Drizzle
10:00 AM 69.8 °F 68.0 °F 94% 30.06 in 1.2 mi WSW 2.3 mph - N/A   Heavy Drizzle
11:00 AM 69.8 °F 69.8 °F 100% 30.06 in 1.2 mi SW 5.8 mph - N/A   Light Drizzle
12:00 PM 71 °F 69 °F 91% 30.08 in 1 mi SW 9.2 mph - - Rain Heavy Drizzle
12:00 PM 69.8 °F 69.8 °F 100% 30.06 in 1.2 mi SW 9.2 mph - N/A   Heavy Drizzle
1:00 PM 69.8 °F 69.8 °F 100% 30.06 in 1.9 mi WSW 5.8 mph - N/A   Drizzle
2:00 PM 69.8 °F 68.0 °F 94% 30.04 in 0.9 mi WSW 5.8 mph - N/A   Heavy Drizzle
3:00 PM 70 °F 68 °F 92% 30.01 in 1 mi WSW 8.1 mph - - Rain Heavy Drizzle
3:00 PM 69.8 °F 68.0 °F 94% 30.01 in 0.6 mi WSW 8.1 mph - N/A   Heavy Drizzle
4:00 PM 69.8 °F 68.0 °F 94% 30.01 in 0.9 mi SSW 6.9 mph - N/A   Heavy Drizzle
5:00 PM 69.8 °F 68.0 °F 94% 30.04 in 0.9 mi SSW 6.9 mph - N/A   Drizzle
6:00 PM 69 °F 66 °F 87% 30.05 in 3 mi SSW 3.5 mph - - Rain Light Drizzle
6:00 PM 68.0 °F 66.2 °F 94% 30.04 in 3.1 mi SSW 3.5 mph - N/A   Light Drizzle
7:00 PM 68.0 °F 66.2 °F 94% 30.04 in 6.2 mi SW 2.3 mph - N/A   Overcast
8:00 PM 68.0 °F 66.2 °F 94% 30.06 in 6.2 mi SW 6.9 mph - N/A   Overcast
9:00 PM 69 °F 65 °F 85% 30.09 in 6 mi SSW 6.9 mph - -   Haze
9:00 PM 68.0 °F 66.2 °F 94% 30.06 in 6.2 mi SSW 6.9 mph - N/A   Mostly Cloudy
10:00 PM 68.0 °F 66.2 °F 94% 30.06 in 6.2 mi SSW 3.5 mph - N/A   Overcast
11:00 PM 68.0 °F 66.2 °F 94% 30.04 in 6.2 mi East 3.5 mph - N/A   Overcast